072  
ASUS43 KEAX 280015  
RWREAX  
 
WEATHER ROUNDUP FOR EASTERN KANSAS AND NORTHWEST MISSOURI  
NATIONAL WEATHER SERVICE KANSAS CITY/PLEASANT HILL MO  
700 PM CDT TUE SEP 27 2022  
 
KSZ040-057-103>105-MOZ028-029-037-043-280100-   
..KANSAS CITY METROPOLITAN AREA
 
 
 
CITY SKY/WX TMP DP RH WIND PRES REMARKS
 
K.C. INTL PTCLDY 75 42 30 NE8 30.16R  
6HR MIN TEMP: 75; 6HR MAX TEMP: 83;  
 
K.C. DOWNTOWN CLEAR 78 42 27 E8 30.14R  
6HR MIN TEMP: 76; 6HR MAX TEMP: 82;  
 
LEES SUMMIT CLEAR 75 42 30 NE7 30.15R  
6HR MIN TEMP: 75; 6HR MAX TEMP: 81;  
 
OLATHE - IXD CLEAR 76 45 33 E5 30.14R  
6HR MIN TEMP: 76; 6HR MAX TEMP: 83;  
 
OLATHE - OJC CLEAR 76 44 32 E6 30.14R  
6HR MIN TEMP: 76; 6HR MAX TEMP: 82;  
 
LAWRENCE CLEAR 74 46 36 NE8 30.13R  
 

 
 
MOZ001>008-011>017-020>025-030>033-038>040-044>046-053-054-280100-   
..NORTHERN AND CENTRAL MISSOURI
 
 
 
CITY SKY/WX TMP DP RH WIND PRES REMARKS
 
ST. JOSEPH CLEAR 69 46 43 NE8 30.17R  
6HR MIN TEMP: 69; 6HR MAX TEMP: 79;  
 
MOSBY CLEAR 73 39 29 NE3 30.17R  
HARRISONVILLE CLEAR 73 45 35 CALM 30.17R  
WHITEMAN AFB CLEAR 71 43 36 CALM 30.11R  
6HR MIN TEMP: 71; 6HR MAX TEMP: 80;  
 
CLINTON CLEAR 70 48 46 CALM 30.14S  
SEDALIA CLEAR 70 43 37 NE5 30.17R  
6HR MIN TEMP: 70; 6HR MAX TEMP: 81;  
 
MARSHALL CLEAR 68 43 40 NE6 30.19R  
CHILLICOTHE N/A 70 44 39 NE8 30.21R  
6HR MIN TEMP: 70; 6HR MAX TEMP: 80;  
 
MOBERLY CLEAR 63 43 48 NE6 30.21R  
KIRKSVILLE CLEAR 61 42 49 NE5 30.22R  
6HR MIN TEMP: 61; 6HR MAX TEMP: 73;  
 

 
 
MOZ041-047>049-056>058-063>065-088>090-097-280100-   
..EASTERN AND SOUTHERN MISSOURI
 
 
 
CITY SKY/WX TMP DP RH WIND PRES REMARKS
 
ST. LOUIS INTL PTCLDY 66 39 37 N7 30.19R  
6HR MIN TEMP: 66; 6HR MAX TEMP: 75;  
 
SPIRIT OF STL PTCLDY 67 40 37 N3 30.18R  
COLUMBIA CLEAR 68 43 40 NE12 30.19R  
JEFFERSON CITY CLEAR 73 41 31 NE8 30.16R  
MEXICO CLEAR 59 45 58 NE3 30.20R  
HANNIBAL CLEAR N/A N/A N/A CALM 30.21S  
ROLLA CLEAR 67 42 40 NE5 30.18R  
LEBANON CLEAR 68 37 32 NE3 30.19R  
OSAGE BEACH CLEAR 64 56 75 CALM N/A  
SPRINGFIELD CLEAR 76 43 30 NE3 30.14R  
BRANSON CLEAR 73 39 29 E3 30.16R  
JOPLIN CLEAR 78 43 28 SW5 30.12R  
WEST PLAINS CLEAR 70 46 42 CALM 30.18R  
SIKESTON CLEAR 70 37 30 NE5 30.16R  
 

 
 
IAZ060-094-KSZ022-034>040-054-083-096-NEZ052-066-093-280100-    
..KANSAS...SOUTHEAST NEBRASKA AND IOWA
 
 
 
CITY SKY/WX TMP DP RH WIND PRES REMARKS
 
TOPEKA CLEAR 77 49 37 NE6 30.12R  
6HR MIN TEMP: 77; 6HR MAX TEMP: 86;  
 
MANHATTAN CLEAR 77 49 37 NE5 30.11R  
EMPORIA CLEAR 78 47 33 MISG 30.09R  
CHANUTE N/A N/A N/A N/A MISG 30.09R  
SALINA CLEAR 79 50 36 NE5 30.12R  
WICHITA CLEAR 84 45 25 N7 30.07R  
OMAHA MOCLDY 71 42 35 NE9 30.22R  
LINCOLN CLEAR 73 41 31 NE10 30.20R  
FALLS CITY CLEAR 72 45 37 E8 30.16R  
LAMONI CLEAR 63 42 46 N8 30.22R  
DES MOINES PTCLDY 64 38 38 N6 30.24R  
 

 
 
 
 
CLICK HERE TO GO TO PREVIOUS BULLETINS.

The Nexlab MO Page
The Nexlab KS Page Main Text Page